FENGYUN 1C DEB

Satellite information

Favourite Embed

Satellite Type and Status

DEBRISIN ORBIT

Key statistics

Satellite FENGYUN 1C DEB at a glance.

Uptime

9715

Days in orbit

Revolutions

≈ 14.3

Per day

Orbit

SSO

Sun Synchronous Orbit

Inclination

98.9

Latest

Satellite identification and parameters

Extended collection of information and parameters for FENGYUN 1C DEB.

Object identification

Identified? True

Debris? True

Object name: FENGYUN 1C DEB

International designator: 1999-025BXC

Object number (NORAD): 31513

Object ID (CCSDS): 31513

Country: PEOPLES REPUBLIC OF CHINA (PRC)

Current information (Y/N): Y

RCS size: SMALL

Orbital parameters

Period: 100.536 minutes

Inclination: 98.8622 deg

SMA: 7162.138 km

Apoapsis: 804.23 km

Periapsis: 763.776 km

RAAN: 65.435 deg

Eccentricy: 0.00282412

Argument of periapsis: 176.3464 deg

Mean anomaly: 183.7931 deg

Mean motion: 14.32315683 rev/day

Mean motion (dot): 0.00006459 rev/day2

B* drag term: 0.0023967664 1/REarth

Two-line elements (TLE)

Creation date: Nov. 25, 2025, 5:18 p.m.

Reference frame: TEME

Reference center: EARTH

Epoch: Nov. 25, 2025, 2:15 a.m. UTC

TLE line 0: 0 FENGYUN 1C DEB

TLE line 1: 1 31513U 99025BXC 25329.09402584 .00006459 00000-0 23968-2 0 9995

TLE line 2: 2 31513 98.8622 65.4350 0028241 176.3464 183.7931 14.32315683726161

Live tracking on map

Real-time ground track for satellite FENGYUN 1C DEB.

In-orbit conjunctions

A list of the most updated potential collisions computed for object FENGYUN 1C DEB.

Target Orbit TCA Probability of collision Miss distance Type
COSMOS 1992 LEO 2025-07-24 01:36:55 0.0001458407 202.0 (m) PAYLOAD

Associated space launch

Chinese polar orbiting meteorological satellite

FENGYUN 1C DEB was lifted into orbit during the mission ‘Long March 4B | Feng Yun 1C’, on board a Long March 4B space rocket.

The launch took place on May 10, 1999, 1:33 a.m. from Launch Complex 7.

For more information about the launch, click the button.

Launch to space Long March 4B | Feng Yun 1C
Long March 4B | Feng Yun 1C

Agency: N/A

Status: Launch Successful

Launch date: May 10, 1999, 1:33 a.m. UTC

Rocket: Long March 4B

Launch pad: Launch Complex 7

Location: Taiyuan Satellite Launch Center, People's Republic of China

...

Latest news about this satellite

There are no fresh news available about this satellite. Check back as we update our databases every day.


Newsletter sign-up

Weekly statistics, charts and insights to help you stay on top of the space industry.